Regional Weather Roundup
Issued by NWS Kansas City/Pleasant Hill, MO

Home | Current Version | Previous Version | Graphics & Text | Print | Product List | Glossary Off
Versions: 1 2 3 4 5 6 7 8 9 10 11 12 13 14 15 16 17 18 19 20 21 22 23 24 25 26 27 28 29 30 31 32 33 34 35 36 37 38 39 40 41 42 43 44 45 46 47 48 49 50

000
ASUS43 KEAX 212310
RWREAX

WEATHER ROUNDUP FOR EASTERN KANSAS AND NORTHWEST MISSOURI
NATIONAL WEATHER SERVICE KANSAS CITY/PLEASANT HILL MO
500 PM CST TUE FEB 21 2017

KSZ040-057-103>105-MOZ028-029-037-043-220000-
...KANSAS CITY METROPOLITAN AREA...

CITY           SKY/WX    TMP DP  RH WIND       PRES   REMARKS
K.C. INTL      MOSUNNY   70  34  26 NW6       29.90S
K.C. DOWNTOWN  SUNNY     72  37  28 W3        29.88F
LEES SUMMIT    SUNNY     70  45  40 NW7       29.90S
OLATHE - IXD   SUNNY     70  37  29 N5        29.91R
OLATHE - OJC   SUNNY     71  39  31 NW5       29.90S
LAWRENCE       SUNNY     70  28  21 W8        29.90F

$$

MOZ001>008-011>017-020>025-030>033-038>040-044>046-053-054-220000-
...NORTHERN AND CENTRAL MISSOURI...

CITY           SKY/WX    TMP DP  RH WIND       PRES   REMARKS
ST. JOSEPH     SUNNY     69  32  25 W6        29.89F
WARRENSBURG    SUNNY     70  46  43 NW3       29.89S
WHITEMAN AFB   MOSUNNY   70  51  51 CALM      29.88S
CLINTON        SUNNY     72  50  46 N6        29.89F
SEDALIA        CLOUDY    72  50  45 NW6       29.90S
WARSAW         NOT AVBL
CHILLICOTHE      N/A     72  39  30 N3        29.89F
KIRKSVILLE     CLEAR     71  45  39 N6        29.89S

$$

MOZ041-047>049-056>058-063>065-088>090-097-220000-
...EASTERN AND SOUTHERN MISSOURI...

CITY           SKY/WX    TMP DP  RH WIND       PRES   REMARKS
ST. LOUIS INTL MOCLDY    66  56  70 E3        29.90S
SPIRIT OF STL  MOCLDY    66  59  78 N7        29.88S
COLUMBIA       CLOUDY    67  57  70 E5        29.89S
JEFFERSON CITY MOCLDY    66  58  75 SE8       29.89R
ROLLA          CLOUDY    61  59  93 N6        29.89F
OSAGE BEACH    CLOUDY    64  58  80 E3        29.91R
SPRINGFIELD    CLOUDY    64  58  80 NE8       29.89S
BRANSON        CLOUDY    57  57 100 N8        29.90R
JOPLIN         SUNNY     69  52  54 N12       29.90S
WEST PLAINS    CLOUDY    58  56  93 N5        29.91R

$$

IAZ060-094-KSZ022-034>040-054-083-096-NEZ052-066-093-220000-
...KANSAS...SOUTHEAST NEBRASKA AND IOWA...

CITY           SKY/WX    TMP DP  RH WIND       PRES   REMARKS
TOPEKA         SUNNY     70  25  18 CALM      29.89F
MANHATTAN      SUNNY     71  36  27 S8        29.89F
EMPORIA        SUNNY     70  29  21 NW3       29.90F
CHANUTE        SUNNY     72  44  36 N7        29.90S
WICHITA        MOSUNNY   69  35  28 S5        29.92F
OMAHA          SUNNY     70  37  29 S16       29.81F
LINCOLN        SUNNY     74  28  18 SW15      29.83F
FALLS CITY     SUNNY     68  34  28 S8        29.88F
LAMONI         CLEAR     67  33  28 SW7       29.88F
DES MOINES     PTCLDY    67  33  28 SW12      29.85F

$$




USA.gov is the U.S. government's official web portal to all federal, state and local government web resources and services.